Home   Weather   Township of Washington   Past weeks
Flag for USA

Past Weather in Township of Washington, Arkansas, USA — Yesterday and Last 2 Weeks

Now
46 °F

Fog.


Feels Like: 46 °F
Forecast: 69 / 45 °F
Wind: No wind

Location: Texarkana Regional-Webb Field

Current Time: Oct 17, 2019 at 5:49:51 am

Latest Report: Oct 17, 2019 at 4:53 am


Visibility: 6 mi

Pressure: 30.08 "Hg

Humidity: 96%

Dew Point: 45 °F

Location of Township of WashingtonLocation

Past Weather in Township of Washington — Graph

°F

Township of Washington Temperature Yesterday

Maximum temperature yesterday: 69 °F (at 12:53 am)
Minimum temperature yesterday: 50 °F (at 11:53 pm)
Average temperature yesterday: 60 °F

High & Low Weather Summary for the Past Weeks

 TemperatureHumidityPressure
High95 °F (Oct 2, 2:53 pm)100% (Oct 15, 4:34 am)30.29 "Hg (Oct 15, 4:34 am)
Low38 °F (Oct 12, 6:53 am)23% (Oct 12, 4:53 pm)29.80 "Hg (Oct 10, 4:53 pm)
Average67 °F74%30.03 "Hg
* Reported Oct 2 3:53 am — Oct 17 3:53 am, Township of Washington. Weather by CustomWeather, © 2019

Note: Actual official high and low records may vary slightly from our data, if they occured in-between our weather recording intervals... More about our weather records

Advertising

Township of Washington Weather History for the Previous 24 Hours

Scroll right to see more
 ConditionsComfort  
Time TempWeatherWind HumidityBarometerVisibility
3:53 am
Thu, Oct 17
45 °FClear.No wind97%30.09 "Hg8 mi
2:53 am48 °FClear.No wind93%30.09 "Hg10 mi
1:53 am49 °FClear.No wind90%30.10 "Hg10 mi
12:53 am49 °FClear.No wind90%30.08 "Hg10 mi
11:53 pm
Wed, Oct 16
50 °FClear.No wind89%30.09 "Hg10 mi
10:53 pm52 °FClear.No wind86%30.11 "Hg10 mi
9:53 pm52 °FClear.No wind83%30.07 "Hg10 mi
8:53 pm52 °FClear.No wind86%30.08 "Hg10 mi
7:53 pm53 °FClear.No wind86%30.08 "Hg10 mi
6:53 pm55 °FClear.No wind80%30.08 "Hg10 mi
5:53 pm62 °FSunny.No wind56%30.08 "Hg10 mi
4:53 pm65 °FSunny.3 mph44%30.10 "Hg10 mi
3:53 pm66 °FSunny.8 mph40%30.10 "Hg10 mi
2:53 pm65 °FSunny.5 mph42%30.11 "Hg10 mi
1:53 pm64 °FSunny.6 mph45%30.12 "Hg10 mi
12:53 pm62 °FSunny.8 mph44%30.15 "Hg10 mi
11:53 am61 °FSunny.7 mph50%30.16 "Hg10 mi
10:53 am60 °FSunny.9 mph47%30.16 "Hg10 mi
9:53 am57 °FSunny.10 mph60%30.15 "Hg10 mi
8:53 am55 °FSunny.6 mph72%30.12 "Hg10 mi
7:53 am52 °FSunny.5 mph80%30.08 "Hg10 mi
6:53 am55 °FClear.8 mph69%30.06 "Hg10 mi
5:53 am58 °FOvercast.10 mph67%30.03 "Hg10 mi
Weather by CustomWeather, © 2019

See weather overview